THORAD AGENA D DEB

Satellite information

Favourite Embed

Satellite Type and Status

DEBRISIN ORBIT

Key statistics

Satellite THORAD AGENA D DEB at a glance.

Uptime

20233

Days in orbit

Revolutions

≈ 13.8

Per day

Orbit

SSO

Sun Synchronous Orbit

Inclination

100.0

Latest

Satellite identification and parameters

Extended collection of information and parameters for THORAD AGENA D DEB.

Object identification

Identified? True

Debris? True

Object name: THORAD AGENA D DEB

International designator: 1970-025DH

Object number (NORAD): 4759

Object ID (CCSDS): 4759

Country: UNITED STATES OF AMERICA (US)

Current information (Y/N): Y

RCS size: SMALL

Orbital parameters

Period: 104.692 minutes

Inclination: 100.0421 deg

SMA: 7358.168 km

Apoapsis: 981.32 km

Periapsis: 978.746 km

RAAN: 230.0666 deg

Eccentricy: 0.00017494

Argument of periapsis: 341.4381 deg

Mean anomaly: 92.8251 deg

Mean motion: 13.75460751 rev/day

Mean motion (dot): 0.00000886 rev/day2

B* drag term: 0.00097197821 1/REarth

Two-line elements (TLE)

Creation date: Aug. 30, 2025, 3:38 a.m.

Reference frame: TEME

Reference center: EARTH

Epoch: Aug. 29, 2025, 10:05 p.m. UTC

TLE line 0: 0 THORAD AGENA D DEB

TLE line 1: 1 04759U 70025DH 25241.92062311 .00000886 00000-0 97198-3 0 9996

TLE line 2: 2 04759 100.0421 230.0666 0001749 341.4381 92.8251 13.75460751754870

Live tracking on map

Real-time ground track for satellite THORAD AGENA D DEB.

In-orbit conjunctions

A list of the most updated potential collisions computed for object THORAD AGENA D DEB.

Target Orbit TCA Probability of collision Miss distance Type
THORAD AGENA D DEB SSO 2025-06-20 00:57:32 0.0002661189 79.0 (m) DEBRIS
COSMOS 1375 DEB LEO 2025-06-03 12:58:30 0.001060712 45.0 (m) DEBRIS
FENGYUN 1C DEB SSO 2024-09-24 18:51:07 0.002473578 147.0 (m) DEBRIS

Associated space launch

Meteorological research and development satellite

THORAD AGENA D DEB was lifted into orbit during the mission ‘Thorad SLV-2G Agena D | Nimbus 4’, on board a Thorad SLV-2G Agena D space rocket.

The launch took place on April 8, 1970, 8:17 a.m. from Space Launch Complex 2E.

For more information about the launch, click the button.

Launch to space Thorad SLV-2G Agena D | Nimbus 4
Thorad SLV-2G Agena D | Nimbus 4

Agency: N/A

Status: Launch Successful

Launch date: April 8, 1970, 8:17 a.m. UTC

Rocket: Thorad SLV-2G Agena D

Launch pad: Space Launch Complex 2E

Location: Vandenberg SFB, CA, USA

...

Latest news about this satellite

There are no fresh news available about this satellite. Check back as we update our databases every day.


Newsletter sign-up

Weekly statistics, charts and insights to help you stay on top of the space industry.